User: anonymous   Login
Location: Brno
(49.2000°N, 16.6330°E)
Time: 09:59:38
(UTC+02:00)
Language:

ISS - Orbit

View from above orbital plane
View from above orbital plane
View from above satellite
View from above satellite

Ground track
Ground track

The orbit data is extracted from the following two-line orbital elements,

1 25544U 98067A   15148.10234883  .00005183  00000-0  82257-4 0  9993
2 25544 051.6446 184.3139 0003914 352.9763 071.3293 15.55209110944910
Epoch (UTC): 28 May 2015 02:27:22
Eccentricity: 0.0003914
inclination: 51.6446°
perigee height: 399 km
apogee height: 404 km
right ascension of ascending node: 184.3139°
argument of perigee: 352.9763°
revolutions per day: 15.55209110
mean anomaly at epoch: 71.3293°
orbit number at epoch: 94491

The dashed part of the orbit path shows where the satellite is in the earth's shadow,  

DLR